TimeCST,TemperatureF,Dew PointF,Humidity,Sea Level PressureIn,VisibilityMPH,Wind Direction,Wind SpeedMPH,Gust SpeedMPH,PrecipitationIn,Events,Conditions,WindDirDegrees,DateUTC
12:51 AM,25.0,12.0,58,30.30,10.0,WSW,6.9,-,N/A,,Overcast,240,2013-11-28 06:51:00
1:51 AM,24.1,12.0,60,30.29,10.0,SSW,8.1,-,N/A,,Overcast,210,2013-11-28 07:51:00
2:51 AM,25.0,10.9,55,30.28,10.0,SSW,9.2,-,N/A,,Overcast,210,2013-11-28 08:51:00
3:51 AM,25.0,10.9,55,30.27,10.0,SSW,10.4,-,N/A,,Overcast,210,2013-11-28 09:51:00
4:51 AM,25.0,10.0,53,30.26,10.0,South,8.1,-,N/A,,Overcast,190,2013-11-28 10:51:00
5:51 AM,25.0,10.0,53,30.26,10.0,SSW,12.7,-,N/A,,Overcast,200,2013-11-28 11:51:00
6:51 AM,25.0,10.0,53,30.27,10.0,SSW,9.2,-,N/A,,Overcast,200,2013-11-28 12:51:00
7:51 AM,26.1,10.0,51,30.27,10.0,SSW,12.7,-,N/A,,Overcast,200,2013-11-28 13:51:00
8:51 AM,27.0,10.0,49,30.27,10.0,South,15.0,25.3,N/A,,Mostly Cloudy,190,2013-11-28 14:51:00
9:51 AM,28.9,10.0,45,30.26,10.0,SSW,13.8,21.9,N/A,,Partly Cloudy,210,2013-11-28 15:51:00
10:51 AM,30.9,12.0,46,30.24,10.0,SW,12.7,-,N/A,,Scattered Clouds,230,2013-11-28 16:51:00
11:51 AM,32.0,12.9,45,30.23,10.0,WSW,8.1,-,N/A,,Mostly Cloudy,250,2013-11-28 17:51:00
12:51 PM,33.1,14.0,46,30.23,10.0,West,9.2,-,N/A,,Scattered Clouds,270,2013-11-28 18:51:00
1:51 PM,34.0,14.0,44,30.25,10.0,West,11.5,-,N/A,,Partly Cloudy,270,2013-11-28 19:51:00
2:51 PM,34.0,15.1,46,30.28,10.0,West,9.2,-,N/A,,Mostly Cloudy,260,2013-11-28 20:51:00
3:51 PM,33.1,16.0,50,30.32,10.0,West,9.2,-,N/A,,Mostly Cloudy,280,2013-11-28 21:51:00
4:51 PM,30.9,16.0,54,30.35,10.0,WNW,8.1,-,N/A,,Scattered Clouds,300,2013-11-28 22:51:00
5:51 PM,30.0,16.0,56,30.40,10.0,NW,11.5,-,N/A,,Clear,310,2013-11-28 23:51:00
6:51 PM,28.0,15.1,58,30.44,10.0,NNW,11.5,-,N/A,,Clear,330,2013-11-29 00:51:00
7:51 PM,26.1,15.1,63,30.46,10.0,NW,6.9,-,N/A,,Clear,320,2013-11-29 01:51:00
8:51 PM,24.1,15.1,69,30.48,10.0,NW,5.8,-,N/A,,Clear,310,2013-11-29 02:51:00
9:51 PM,23.0,15.1,72,30.51,10.0,WNW,3.5,-,N/A,,Partly Cloudy,290,2013-11-29 03:51:00
10:51 PM,24.1,16.0,71,30.53,10.0,NNW,8.1,-,N/A,,Partly Cloudy,340,2013-11-29 04:51:00
11:51 PM,25.0,14.0,63,30.53,10.0,North,6.9,-,N/A,,Clear,350,2013-11-29 05:51:00